TimeCST,TemperatureF,Dew PointF,Humidity,Sea Level PressureIn,VisibilityMPH,Wind Direction,Wind SpeedMPH,Gust SpeedMPH,PrecipitationIn,Events,Conditions,WindDirDegrees,DateUTC
12:00 AM,68,62,77,29.83,12,ENE,2.3,,,,,60,2012-10-28 06:00:00
12:00 AM,68.0,62.6,83,29.97,-9999.0,ENE,2.3,-,N/A,,Clear,60,2012-10-28 06:00:00
1:00 AM,68.0,60.8,78,29.95,-9999.0,ENE,5.8,-,N/A,,Clear,60,2012-10-28 07:00:00
2:00 AM,68.0,59.0,73,29.93,-9999.0,NE,8.1,-,N/A,,Clear,50,2012-10-28 08:00:00
3:00 AM,68,59,65,29.81,12,ENE,6.9,,,,,60,2012-10-28 09:00:00
3:00 AM,68.0,59.0,73,29.94,-9999.0,ENE,6.9,-,N/A,,Clear,60,2012-10-28 09:00:00
4:00 AM,66.2,59.0,78,29.94,-9999.0,NE,8.1,-,N/A,,Clear,40,2012-10-28 10:00:00
5:00 AM,66.2,59.0,78,29.95,-9999.0,NE,8.1,-,N/A,,Clear,40,2012-10-28 11:00:00
6:00 AM,67,59,68,29.85,12,NE,2.3,,,,,40,2012-10-28 12:00:00
6:00 AM,68.0,59.0,73,29.98,-9999.0,NE,2.3,-,N/A,,Clear,40,2012-10-28 12:00:00
7:00 AM,77.0,60.8,57,29.99,6.2,Calm,Calm,-,N/A,,Partly Cloudy,0,2012-10-28 13:00:00
8:00 AM,77.0,59.0,54,30.02,6.2,NE,5.8,-,N/A,,Partly Cloudy,50,2012-10-28 14:00:00
9:00 AM,78,60,44,29.86,12,East,10.4,,,,Scattered Clouds,90,2012-10-28 15:00:00
9:00 AM,78.8,60.8,54,30.02,6.2,East,10.4,-,N/A,,Partly Cloudy,90,2012-10-28 15:00:00
10:00 AM,78.8,60.8,54,30.01,6.2,East,9.2,-,N/A,,Partly Cloudy,80,2012-10-28 16:00:00
11:00 AM,78.8,60.8,54,30.00,6.2,East,11.5,23.0,N/A,,Scattered Clouds,80,2012-10-28 17:00:00
12:00 PM,79,60,43,29.83,12,East,11.5,,,,Partly Cloudy,90,2012-10-28 18:00:00
12:00 PM,78.8,60.8,54,29.97,6.2,East,11.5,23.0,N/A,,Scattered Clouds,90,2012-10-28 18:00:00
1:00 PM,80.6,60.8,51,29.94,6.2,East,10.4,-,N/A,,Partly Cloudy,100,2012-10-28 19:00:00
2:00 PM,78.8,60.8,54,29.92,6.2,ESE,9.2,20.7,N/A,,Scattered Clouds,110,2012-10-28 20:00:00
3:00 PM,77,61,49,29.80,12,East,16.1,,,,Scattered Clouds,100,2012-10-28 21:00:00
3:00 PM,77.0,60.8,57,29.92,6.2,East,16.1,-,N/A,,Scattered Clouds,100,2012-10-28 21:00:00
4:00 PM,75.2,60.8,61,29.92,6.2,East,18.4,-,N/A,,Scattered Clouds,100,2012-10-28 22:00:00
5:00 PM,73.4,60.8,65,29.95,6.2,ESE,10.4,-,N/A,,Scattered Clouds,110,2012-10-28 23:00:00
6:00 PM,72,60,58,29.85,12,East,8.1,,,,Scattered Clouds,100,2012-10-29 00:00:00
6:00 PM,71.6,60.8,69,29.97,6.2,East,8.1,-,N/A,,Scattered Clouds,100,2012-10-29 00:00:00
7:00 PM,69.8,60.8,73,29.99,6.2,ESE,6.9,-,N/A,,Partly Cloudy,120,2012-10-29 01:00:00
8:00 PM,69.8,62.6,78,30.02,6.2,East,9.2,20.7,N/A,,Partly Cloudy,100,2012-10-29 02:00:00
9:00 PM,69,61,68,29.86,12,ENE,9.2,,,,Scattered Clouds,60,2012-10-29 03:00:00
9:00 PM,69.8,60.8,73,30.02,6.2,ENE,9.2,-,N/A,,Partly Cloudy,60,2012-10-29 03:00:00
10:00 PM,69.8,59.0,68,30.02,-9999.0,East,9.2,-,N/A,,Clear,90,2012-10-29 04:00:00
11:00 PM,68.0,59.0,73,30.02,-9999.0,ENE,3.5,-,N/A,,Clear,60,2012-10-29 05:00:00